Location: Leimbach
(47.5611°N, 9.1881°E)
Time: 21:07:11
(UTC+00:00)

SL-4 R/B - Pass Details

Date: 07 June 2020
Orbit: 428 x 666 km, 51.6° (Epoch: 09 July)

Event Time Altitude Azimuth Distance (km) Brightness Sun altitude
Rises 01:07:46 0° 294° (WNW) 3,008 5.8 -15.8°
Reaches altitude 10° 01:10:09 10° 292° (WNW) 2,090 4.9 -15.6°
Maximum altitude 01:14:58 67° 211° (SSW) 711 2.3 -15.2°
Drops below altitude 10° 01:19:36 10° 129° (SE) 2,015 4.8 -14.9°
Sets 01:21:52 0° 126° (SE) 2,890 5.6 -14.7°
